Location: Pedholt
(56.0260°N, 10.2097°E)
Time: 05:51:23
(UTC+00:00)

Cosmos 1500 - Pass Details

Date: 14 July 2020
Orbit: 498 x 520 km, 82.5° (Epoch: 14 August)

Event Time Altitude Azimuth Distance (km) Brightness Sun altitude
Exits shadow 00:58:34 11° 173° (S) 1,697 5.3 -9.9°
Maximum altitude 01:02:11 53° 97° (E) 637 3.7 -9.7°
Drops below altitude 10° 01:05:54 10° 20° (NNE) 1,737 7.5 -9.5°
Sets 01:08:03 0° 16° (NNE) 2,624 8.9 -9.3°
